Location: Bannatyne
(13.0833°N, 59.5333°W)
Time: 15:28:06
(UTC+00:00)

A-11 Canister half - Visible Passes

Search period start: 20 January 2020 00:00
Search period end: 30 January 2020 00:00
Orbit: 1525 x 1684 km, 47.3° (Epoch: 19 January)

Date Brightness Start Highest point End Pass type
(mag) Time Alt. Az. Time Alt. Az. Time Alt. Az.
20 Jan 9.9 07:00:53 44° SE 07:00:53 44° SE 07:07:06 10° SE visible
20 Jan 10.2 08:59:13 20° WSW 09:01:39 22° SW 09:08:53 10° S visible
21 Jan 10.3 06:40:55 31° SE 06:40:55 31° SE 06:45:25 10° SE visible
21 Jan 10.1 08:39:15 24° WSW 08:40:00 24° SW 08:47:35 10° S visible
22 Jan 10.8 06:20:55 22° SE 06:20:55 22° SE 06:23:42 10° SE visible
22 Jan 10.1 08:19:15 26° SW 08:19:15 26° SW 08:26:15 10° S visible
23 Jan 11.1 06:00:52 14° SE 06:00:52 14° SE 06:01:59 10° SE visible
23 Jan 10.2 07:59:12 25° SSW 07:59:12 25° SSW 08:04:52 10° S visible
24 Jan 10.4 07:39:07 23° SSW 07:39:07 23° SSW 07:43:30 10° S visible
25 Jan 10.6 07:18:58 20° S 07:18:58 20° S 07:22:04 10° S visible
25 Jan 11.0 22:17:36 10° NW 22:19:13 10° NNW 22:20:50 10° NNW visible
26 Jan 10.9 06:58:47 16° S 06:58:47 16° S 07:00:38 10° S visible
27 Jan 11.1 06:38:33 12° S 06:38:33 12° S 06:39:10 10° SSE visible
